Weather History for Barking Sands, HI

Change the Weather History Date:

Sunday, February 23, 2014

  Actual Average Record
Temperature  
Mean Temperature 76 °F -  
Max Temperature 80 °F 81 °F 84 °F (1971)
Min Temperature 71 °F 60 °F 53 °F (1960)
Cooling Degree Days 11    
Growing Degree Days 26 (Base 50)    
Moisture  
Dew Point 67 °F    
Average Humidity 74    
Maximum Humidity 79    
Minimum Humidity 67    
Precipitation  
Precipitation 0.00 in - - ()
Sea Level Pressure  
Sea Level Pressure 29.99 in    
Wind  
Wind Speed 7 mph (NNE)    
Max Wind Speed 23 mph    
Max Gust Speed 26 mph    
Visibility 10 miles    
Events      
Averages and records for this station are not official NWS values.
T = Trace of Precipitation, MM = Missing Value Source: NWS Daily Summary

Daily Weather History Graph

Daily Weather History Graph

Search for Another Location

Airport:

Trip Planner

Search our weather history database for the weather conditions in past years. The results will help you decide how hot, cold, wet, or windy it might be!

Date:

Astronomy

Feb. 23, 2014 Rise Set
Actual Time 7:04 AM HST 6:40 PM HST
Civil Twilight 6:42 AM HST 7:03 PM HST
Nautical Twilight 6:16 AM HST 7:29 PM HST
Astronomical Twilight 5:50 AM HST 7:55 PM HST
Moon 1:54 AM HST (2/23) 1:14 PM HST (2/23)
Length of Visible Light 12h 21m
Length of Day
11h 35m
Last Quarter, 37% of the Moon is Illuminated
Feb 23
Last Quarter
Feb 28
New
Mar 8
First Quarter
Mar 16
Full
Mar 23
Last Quarter

Hourly Weather History & Observations

Time (HST) Temp. Heat Index Dew Point Humidity Pressure Visibility Wind Dir Wind Speed Gust Speed Precip Events Conditions
12:56 AM - - - N/A% 30.00 in 10.0 mi ENE 3.5 mph - N/A   Clear
1:56 AM - - - N/A% 29.98 in 10.0 mi East 3.5 mph - N/A   Clear
2:56 AM - - - N/A% 29.97 in 10.0 mi East 3.5 mph - N/A   Clear
3:56 AM - - - N/A% 29.97 in 10.0 mi Calm Calm - N/A   Clear
4:43 AM - - - N/A% 29.96 in 10.0 mi NE 4.6 mph - N/A   Mostly Cloudy
4:56 AM - - - N/A% 29.97 in 10.0 mi ENE 5.8 mph - N/A   Mostly Cloudy
5:08 AM - - - N/A% 29.96 in 10.0 mi ENE 4.6 mph - N/A   Scattered Clouds
5:56 AM - - - N/A% 29.98 in 10.0 mi ENE 3.5 mph - N/A   Partly Cloudy
6:44 AM - - - N/A% 29.98 in 10.0 mi Calm Calm - N/A   Partly Cloudy
6:56 AM - - - N/A% 29.99 in 10.0 mi Calm Calm - N/A   Partly Cloudy
7:56 AM - - - N/A% 30.00 in 10.0 mi ENE 3.5 mph - N/A   Clear
8:56 AM 75.0 °F - 68.0 °F 79% 30.02 in 10.0 mi Calm Calm - N/A   Clear
9:56 AM 77.0 °F - 68.0 °F 74% 30.03 in 10.0 mi NNW 6.9 mph - N/A   Partly Cloudy
10:24 AM 78.8 °F - 69.8 °F 74% 30.02 in 6.2 mi Variable 4.6 mph - N/A   Mostly Cloudy
10:56 AM 77.0 °F - 69.1 °F 76% 30.03 in 8.0 mi SW 5.8 mph - N/A   Overcast
11:28 AM 77.0 °F - 69.8 °F 78% 30.02 in 10.0 mi WSW 4.6 mph - N/A   Scattered Clouds
11:45 AM 78.8 °F - 69.8 °F 74% 30.01 in 6.2 mi North 6.9 mph - N/A   Mostly Cloudy
11:56 AM 78.1 °F - 68.0 °F 71% 30.01 in 10.0 mi North 11.5 mph - N/A   Mostly Cloudy
12:38 PM 80.6 °F 83.9 °F 69.8 °F 70% 29.99 in 10.0 mi North 13.8 mph - N/A   Scattered Clouds
12:56 PM 80.1 °F 82.7 °F 68.0 °F 67% 29.99 in 10.0 mi North 16.1 mph - N/A   Partly Cloudy
1:56 PM 79.0 °F - 68.0 °F 69% 29.97 in 10.0 mi North 19.6 mph - N/A   Clear
2:56 PM 78.1 °F - 68.0 °F 71% 29.96 in 10.0 mi North 21.9 mph - N/A   Clear
3:56 PM 78.1 °F - 68.0 °F 71% 29.96 in 10.0 mi North 19.6 mph 26.5 mph N/A   Clear
4:56 PM 77.0 °F - 66.9 °F 71% 29.97 in 10.0 mi North 23.0 mph - N/A   Clear
5:56 PM 75.0 °F - 66.9 °F 76% 29.98 in 10.0 mi North 18.4 mph 25.3 mph N/A   Clear
6:56 PM 73.0 °F - 66.0 °F 79% 29.99 in 10.0 mi North 18.4 mph - N/A   Clear
7:56 PM 73.0 °F - 66.0 °F 79% 30.01 in 10.0 mi North 17.3 mph - N/A   Clear
8:56 PM 73.0 °F - 64.9 °F 76% 30.03 in 10.0 mi North 13.8 mph - N/A   Clear
9:56 PM 72.0 °F - 64.0 °F 76% 30.03 in 10.0 mi North 13.8 mph - N/A   Clear
10:56 PM 72.0 °F - 64.9 °F 78% 30.03 in 10.0 mi North 11.5 mph - N/A   Clear
11:56 PM 71.1 °F - 63.0 °F 75% 30.02 in 10.0 mi North 11.5 mph - N/A   Clear